Weather History for San Luis Obispo, CA

Change the Weather History Date:

Sunday, January 6, 2013

  Actual Average Record
Temperature  
Mean Temperature 50 °F -  
Max Temperature 54 °F 61 °F 79 °F (1958)
Min Temperature 46 °F 40 °F 29 °F (1970)
Degree Days  
Heating Degree Days 15    
Moisture  
Dew Point 45 °F    
Average Humidity 85    
Maximum Humidity 100    
Minimum Humidity 69    
Precipitation  
Precipitation 0.22 in - - ()
Sea Level Pressure  
Sea Level Pressure 30.13 in    
Wind  
Wind Speed 5 mph (North)    
Max Wind Speed 14 mph    
Max Gust Speed 34 mph    
Visibility 9 miles    
Events Rain    
Averages and records for this station are not official NWS values.
T = Trace of Precipitation, MM = Missing Value Source: NWS Daily Summary

Daily Weather History Graph

Daily Weather History Graph

Search for Another Location

Airport:

Trip Planner

Search our weather history database for the weather conditions in past years. The results will help you decide how hot, cold, wet, or windy it might be!

Date:

Astronomy

Jan. 06, 2013 Rise Set
Actual Time 7:11 AM PST 5:05 PM PST
Civil Twilight 6:43 AM PST 5:33 PM PST
Nautical Twilight 6:12 AM PST 6:05 PM PST
Astronomical Twilight 5:41 AM PST 6:35 PM PST
Moon 1:36 AM PST (1/6) 12:32 PM PST (1/6)
Length of Visible Light 10h 49m
Length of Day
9h 54m
Waning Crescent, 32% of the Moon is Illuminated
Jan 6
Waning Crescent
Jan 11
New
Jan 18
First Quarter
Jan 26
Full
Feb 3
Last Quarter

Hourly Weather History & Observations

Time (PST) Temp. Windchill Dew Point Humidity Pressure Visibility Wind Dir Wind Speed Gust Speed Precip Events Conditions
12:56 AM 48.0 °F - 46.9 °F 96% 30.17 in 10.0 mi East 3.5 mph - 0.00 in Rain Light Rain
1:51 AM 46.4 °F - 46.4 °F 100% 30.16 in 2.5 mi Calm Calm - 0.06 in Rain Heavy Rain
2:07 AM 48.2 °F - 46.4 °F 93% 30.16 in 10.0 mi North - - 0.00 in   Overcast
2:56 AM 46.9 °F - 46.0 °F 97% 30.16 in 10.0 mi SE 4.6 mph - 0.00 in   Mostly Cloudy
3:56 AM 46.0 °F - 45.0 °F 96% 30.16 in 10.0 mi Calm Calm - 0.00 in   Scattered Clouds
4:40 AM 46.4 °F - 46.4 °F 100% 30.16 in 10.0 mi Calm Calm - 0.00 in   Mostly Cloudy
4:56 AM 46.0 °F - 45.0 °F 96% 30.16 in 10.0 mi Calm Calm - 0.00 in   Mostly Cloudy
5:56 AM 46.0 °F 44.8 °F 45.0 °F 96% 30.16 in 10.0 mi ESE 3.5 mph - 0.03 in Rain Light Rain
6:56 AM 46.0 °F 43.1 °F 45.0 °F 96% 30.16 in 7.0 mi SE 5.8 mph - 0.00 in   Overcast
8:56 AM 48.0 °F - 46.0 °F 93% 30.15 in 7.0 mi SE 9.2 mph - 0.01 in   Overcast
9:56 AM 48.0 °F - 46.0 °F 93% 30.12 in 3.0 mi SE 11.5 mph - 0.14 in Rain Light Rain
10:09 AM 48.2 °F - 46.4 °F 93% 30.11 in 3.0 mi SE 10.4 mph - 0.01 in Rain Light Rain
10:35 AM 51.8 °F - 48.2 °F 88% 30.10 in 10.0 mi NNW 9.2 mph 20.7 mph 0.01 in   Overcast
10:56 AM 51.1 °F - 48.0 °F 89% 30.11 in 10.0 mi Calm Calm - 0.01 in   Overcast
11:56 AM 53.1 °F - 45.0 °F 74% 30.10 in 7.0 mi North 13.8 mph 21.9 mph 0.01 in   Mostly Cloudy
12:56 PM 54.0 °F - 44.1 °F 69% 30.10 in 10.0 mi NNW 13.8 mph - N/A   Mostly Cloudy
1:56 PM 54.0 °F - 44.1 °F 69% 30.10 in 10.0 mi NW 13.8 mph - N/A   Mostly Cloudy
2:56 PM 54.0 °F - 45.0 °F 72% 30.11 in 10.0 mi WNW 8.1 mph - N/A   Overcast
4:12 PM 51.8 °F - 46.4 °F 82% 30.10 in 3.0 mi North 4.6 mph - 0.02 in Rain Light Rain
4:37 PM 51.8 °F - 46.4 °F 82% 30.09 in 10.0 mi NNE 3.5 mph - 0.02 in   Overcast
4:56 PM 51.1 °F - 46.0 °F 83% 30.09 in 10.0 mi Calm Calm - 0.02 in   Overcast
5:56 PM 50.0 °F - 45.0 °F 83% 30.11 in 10.0 mi NW 3.5 mph - N/A   Overcast
6:56 PM 50.0 °F - 45.0 °F 83% 30.11 in 10.0 mi Calm Calm - 0.00 in   Overcast
7:56 PM 48.9 °F - 42.1 °F 77% 30.11 in 10.0 mi NNW 9.2 mph - N/A   Clear
8:56 PM 48.0 °F - 41.0 °F 77% 30.13 in 10.0 mi North 5.8 mph - N/A   Scattered Clouds
9:24 PM 48.2 °F - 41.0 °F 76% 30.13 in 10.0 mi NW 5.8 mph - N/A   Mostly Cloudy
9:56 PM 48.0 °F - 39.9 °F 74% 30.13 in 10.0 mi Variable 3.5 mph - N/A   Mostly Cloudy
10:08 PM 48.2 °F - 39.2 °F 71% 30.13 in 10.0 mi West 3.5 mph - N/A   Scattered Clouds
10:56 PM 48.0 °F - 41.0 °F 77% 30.15 in 10.0 mi NW 8.1 mph 34.5 mph N/A   Clear
11:56 PM 48.0 °F - 39.9 °F 74% 30.13 in 10.0 mi SSW 4.6 mph - N/A   Clear